Location: Strawberry
(45.6646°N, 111.9596°W)
Time: 21:43:33
(UTC+00:00)

Envisat - Pass Details

Date: 21 August 2022
Orbit: 764 x 765 km, 98.2° (Epoch: 27 September)

Event Time Altitude Azimuth Distance (km) Brightness Sun altitude
Rises 10:44:08 0° 28° (NNE) 3,241 7.5 -17.8°
Reaches altitude 10° 10:47:09 10° 46° (NE) 2,309 6.8 -17.4°
Maximum altitude 10:50:41 19° 91° (E) 1,773 5.5 -16.9°
Drops below altitude 10° 10:54:12 10° 135° (SE) 2,296 5.6 -16.4°
Sets 10:57:10 0° 153° (SSE) 3,216 6.1 -16.0°
